"Pseudo-MPEC" for A11FVo2

Created 2026 Aug 26 0:35:03 UT using Find_Orb

Click here for an explanation of pseudo-MPECs

 
 Astrometry: 
     A11FVo2*0C2026 08 22.02061100 30 32.599-22 01 55.52   ~8OFo 18.98oVNEOCPM22
     A11FVo2 0C2026 08 22.02241300 30 33.223-22 01 35.04   ~8OFo 18.54oVNEOCPM22
     A11FVo2 0C2026 08 22.04855500 30 41.594-21 56 43.44   ~8OFo 18.38oVNEOCPM22
     A11FVo2 0C2026 08 22.05433700 30 43.315-21 55 39.14   ~8OFo 19.00oVNEOCPM22

Station data:
(M22) ATLAS South Africa, Sutherland  (S32.380156 E20.810590)  South Africa.
   Observers L. Denneau, R. Siverd, J. Tonry, H. Weiland. Measurers L.
   Denneau, N. Erasmus, A. Fitzsimmons, J. Robinson, R. Siverd, J. Tonry, H.
   Weiland. 0.5-m f/2.0 Schmidt + CCD.

Orbital elements:  A11FVo2
   Perihelion 2026 Oct 18.778201 +/- 33 TT = 18:40:36.5 (JD 2461332.278201)
Epoch 2026 Aug 22.0 TT = JDT 2461274.5   Earth MOID: 0.0144      AutoNEOCP
M 324.886455602 +/- 25              (J2000 ecliptic)
n   0.607729970 +/- 0.36            Peri.   67.441126 +/- 60
a   1.380370320 +/- 0.546           Node   334.803057 +/- 53
e   0.37908975 +/- 0.234            Incl.   14.989252 +/- 9
P   1.622/592.357d         H 23.61  G  0.15   U 12.1  SR
q 0.857086071 +/- 0.198    Q 1.903654570 +/- 6.47
From 4 observations 2026 Aug. 22 (48.6 min); mean residual 0".51
Residuals in arcseconds: 
260822 M22  .42-  .27-    260822 M22  .93+  .31+    
260822 M22  .28+  .23+    260822 M22  .79-  .27-    

Ephemerides (geocentric):
Date (UTC) HH   RA             Dec           delta  r     elong  mag " sig PA
---- --------  ------------   ------------  ------ ------ -----  --- --------
2026 08 26 01  01 07 48.877   -00 51 23.93  .03654 1.0375 136.7 18.1  51d 110
2026 08 26 02  01 08 23.632   -00 30 11.04  .03635 1.0373 136.5 18.1  51d 110
2026 08 26 03  01 08 58.741   -00 08 44.75  .03616 1.0371 136.3 18.1  51d 110
2026 08 26 04  01 09 34.209   +00 12 55.02  .03597 1.0368 136.1 18.1  52d 110
2026 08 26 05  01 10 10.041   +00 34 48.34  .03579 1.0366 135.9 18.1  52d 110
2026 08 26 06  01 10 46.243   +00 56 55.30  .03560 1.0364 135.7 18.1  52d 110
2026 08 26 07  01 11 22.819   +01 19 15.98  .03542 1.0361 135.5 18.1  53d 110
2026 08 26 08  01 11 59.776   +01 41 50.43  .03524 1.0359 135.2 18.1  53d 110
2026 08 26 09  01 12 37.119   +02 04 38.73  .03506 1.0357 135.0 18.1  53d 110
2026 08 26 10  01 13 14.853   +02 27 40.93  .03488 1.0354 134.8 18.1  54d 110
2026 08 26 11  01 13 52.985   +02 50 57.10  .03471 1.0352 134.6 18.1  54d 110
2026 08 26 12  01 14 31.520   +03 14 27.27  .03453 1.0350 134.3 18.1  54d 110
2026 08 26 13  01 15 10.465   +03 38 11.49  .03436 1.0347 134.1 18.1  54d 110
2026 08 26 14  01 15 49.825   +04 02 09.80  .03419 1.0345 133.9 18.1  55d 110
2026 08 26 15  01 16 29.607   +04 26 22.24  .03402 1.0343 133.6 18.1  55d 110
2026 08 26 16  01 17 09.817   +04 50 48.83  .03386 1.0340 133.4 18.1  55d 110
2026 08 26 17  01 17 50.461   +05 15 29.58  .03369 1.0338 133.1 18.1  56d 110
2026 08 26 18  01 18 31.546   +05 40 24.51  .03353 1.0336 132.8 18.1  56d 110
2026 08 26 19  01 19 13.079   +06 05 33.63  .03337 1.0333 132.6 18.1  56d 110
2026 08 26 20  01 19 55.066   +06 30 56.92  .03321 1.0331 132.3 18.0  56d 110
2026 08 26 21  01 20 37.515   +06 56 34.39  .03306 1.0329 132.0 18.0  56d 110
2026 08 26 22  01 21 20.432   +07 22 26.01  .03290 1.0326 131.8 18.0  57d 110
2026 08 26 23  01 22 03.824   +07 48 31.75  .03275 1.0324 131.5 18.0  57d 110
2026 08 27 00  01 22 47.699   +08 14 51.57  .03260 1.0322 131.2 18.0  57d 110
2026 08 27 01  01 23 32.065   +08 41 25.44  .03246 1.0320 130.9 18.0  57d 110
2026 08 27 02  01 24 16.927   +09 08 13.29  .03231 1.0317 130.6 18.0  57d 110
2026 08 27 03  01 25 02.296   +09 35 15.06  .03217 1.0315 130.3 18.0  58d 110
2026 08 27 04  01 25 48.177   +10 02 30.68  .03203 1.0313 130.0 18.0  58d 110
2026 08 27 05  01 26 34.579   +10 30 00.05  .03189 1.0310 129.7 18.0  58d 110
2026 08 27 06  01 27 21.511   +10 57 43.09  .03176 1.0308 129.4 18.0  58d 110
2026 08 27 07  01 28 08.979   +11 25 39.69  .03163 1.0306 129.0 18.0  58d 110
2026 08 27 08  01 28 56.993   +11 53 49.73  .03150 1.0303 128.7 18.0  58d 110
2026 08 27 09  01 29 45.562   +12 22 13.07  .03137 1.0301 128.4 18.0  58d 110
2026 08 27 10  01 30 34.692   +12 50 49.58  .03124 1.0299 128.0 18.0  58d 110
2026 08 27 11  01 31 24.395   +13 19 39.11  .03112 1.0296 127.7 18.0  59d 110
2026 08 27 12  01 32 14.678   +13 48 41.48  .03100 1.0294 127.4 18.0  59d 109
2026 08 27 13  01 33 05.550   +14 17 56.53  .03088 1.0292 127.0 18.0  59d 109
2026 08 27 14  01 33 57.020   +14 47 24.05  .03077 1.0290 126.6 18.0  59d 109
2026 08 27 15  01 34 49.099   +15 17 03.85  .03066 1.0287 126.3 18.0  59d 109
2026 08 27 16  01 35 41.796   +15 46 55.72  .03055 1.0285 125.9 18.0  59d 109
2026 08 27 17  01 36 35.120   +16 16 59.41  .03044 1.0283 125.6 18.0  59d 109
2026 08 27 18  01 37 29.080   +16 47 14.69  .03034 1.0280 125.2 18.0  59d 109
2026 08 27 19  01 38 23.688   +17 17 41.31  .03024 1.0278 124.8 18.0  59d 109
2026 08 27 20  01 39 18.954   +17 48 18.98  .03014 1.0276 124.4 18.0  59d 109
2026 08 27 21  01 40 14.887   +18 19 07.44  .03004 1.0274 124.0 18.1  59d 109
2026 08 27 22  01 41 11.498   +18 50 06.38  .02995 1.0271 123.7 18.1  59d 109
2026 08 27 23  01 42 08.798   +19 21 15.50  .02986 1.0269 123.3 18.1  59d 109
2026 08 28 00  01 43 06.798   +19 52 34.46  .02978 1.0267 122.9 18.1  59d 109